Wind_Speed
14 6 5 7 7 8 9 9 7 5 7 7 5 4 4 4 3 1 1 1 3 2 3 4 5 9 12 12 19 20 14 15 17 17 22 24 25 27 28 30 32 33 32 28 27 29 30 30 30 30 31 31 32 32 32 33 33 33 32 33 32 31 29 29 28 26 26 26 26 28 28 28 27 25 23 22 21 20 19 18 18 18 17 17 17 16
11 8 8 9 8 11 11 10 8 5 5 5 5 4 4 4 4 3 2 3 2 2 3 4 5 9 11 13 19 18 9 14 21 21 24 26 26 28 29 31 33 33 32 28 28 31 33 33 32 31 32 32 33 32 32 33 33 34 34 34 33 32 32 31 31 29 28 27 27 28 28 28 27 25 23 22 21 19 19 18 19 18 17 17 17 17
6 8 8 10 11 12 10 9 10 8 7 5 4 4 3 3 3 3 2 4 1 2 3 4 5 9 11 13 18 18 14 20 27 25 26 28 26 26 27 30 33 34 33 30 31 32 33 34 33 33 33 33 33 32 31 32 32 34 35 35 35 34 34 33 32 31 30 28 27 27 27 26 25 24 22 21 19 18 19 19 19 19 17 16 16 16
5 5 9 14 14 13 9 9 11 8 7 4 5 5 3 4 3 2 2 4 2 1 3 3 5 8 11 12 15 18 22 26 30 28 27 27 25 26 26 26 29 32 33 32 33 34 34 34 33 34 35 34 33 32 32 32 32 34 34 35 36 36 36 35 34 33 31 28 26 26 26 25 24 23 21 21 21 20 20 20 20 20 19 18 16 16
3 5 16 16 11 13 10 10 11 7 5 4 5 5 3 5 4 1 0 2 3 3 2 2 5 9 9 11 13 14 16 21 26 25 25 28 28 29 27 26 27 29 30 31 33 35 34 34 33 33 34 33 34 33 33 32 32 32 32 33 35 36 36 35 34 33 32 30 28 27 27 26 25 24 24 24 23 23 22 21 20 19 19 19 18 17
2 7 18 15 9 13 11 9 10 8 5 3 3 5 6 8 5 3 2 3 4 3 2 3 3 7 4 9 12 8 6 11 17 18 23 30 31 30 30 30 31 30 29 29 31 34 34 33 33 33 33 34 35 35 33 32 31 31 32 32 34 35 35 35 34 33 33 32 31 31 30 29 28 27 27 27 25 24 22 20 18 16 16 17 17 17
2 5 12 13 12 12 11 9 10 9 6 3 4 7 9 9 7 4 4 4 1 3 3 1 3 5 5 8 11 6 5 10 11 12 19 28 28 29 32 34 34 34 32 31 30 33 34 33 33 34 33 33 34 33 31 31 31 32 33 33 33 33 34 34 34 33 34 34 33 33 33 31 29 29 28 26 24 23 20 18 16 15 15 16 17 17
6 9 7 12 13 10 10 8 8 11 6 2 6 11 10 9 8 5 6 4 2 2 4 3 3 3 7 9 8 5 8 11 11 10 13 22 26 28 32 34 34 35 34 33 32 31 33 34 33 33 32 31 31 30 30 31 32 34 34 33 33 33 33 34 34 34 35 35 35 35 34 33 31 29 27 24 22 21 19 18 16 16 16 17 18 18
6 11 10 12 12 8 8 6 10 12 5 1 5 10 8 7 6 5 6 2 0 2 4 4 5 2 7 6 1 2 8 13 14 11 10 18 27 30 32 33 33 34 33 33 33 31 31 34 34 33 31 30 29 29 30 31 32 33 33 33 34 34 35 34 33 35 36 36 36 36 36 34 32 29 27 25 23 21 20 19 18 18 18 19 20 20
1 9 13 13 9 7 4 6 12 10 3 4 9 10 8 7 6 5 4 2 2 2 5 4 6 4 7 5 2 3 8 13 13 9 8 16 26 30 33 34 34 34 33 33 34 32 30 31 33 33 32 30 29 28 29 30 31 31 32 33 35 36 36 35 35 35 36 36 36 37 37 35 33 30 28 27 25 24 23 21 20 20 19 20 20 20
2 5 9 6 5 7 7 8 10 9 11 13 12 11 9 5 4 3 2 3 1 4 3 5 9 5 5 5 6 6 6 7 7 6 7 14 23 27 29 32 34 35 34 33 34 34 32 31 32 33 33 32 30 29 29 30 30 31 31 32 35 36 36 35 35 35 36 36 37 37 37 35 33 31 30 29 28 26 25 24 22 21 21 21 21 20
3 5 3 2 7 12 10 6 5 12 17 12 6 7 7 3 3 3 2 2 2 5 1 3 9 7 8 6 5 7 5 4 6 7 8 12 22 29 29 29 31 33 35 34 34 35 34 34 33 34 35 34 33 31 30 30 31 31 31 31 34 35 36 35 35 35 35 36 36 37 36 35 33 32 31 30 29 28 27 25 23 23 22 22 22 22
2 1 1 2 8 12 11 6 4 7 9 6 6 8 5 2 1 0 1 0 4 4 1 4 7 6 10 7 7 12 8 6 9 10 13 15 22 30 32 30 30 31 33 34 35 35 36 38 37 37 38 37 36 34 31 31 31 32 31 31 33 34 35 36 35 35 35 36 36 36 35 34 33 32 32 30 29 28 27 25 24 24 24 24 24 23
2 3 1 3 3 9 12 9 6 5 7 7 9 9 6 4 3 4 3 1 4 4 2 3 4 4 7 4 11 16 14 18 21 21 24 24 26 30 31 31 30 30 30 32 34 36 38 40 40 41 42 41 40 38 35 33 32 32 32 32 32 33 34 36 37 37 37 36 36 35 34 33 33 33 32 30 29 28 27 26 25 24 25 25 25 24
7 1 5 7 4 8 10 8 7 7 6 6 5 5 5 5 4 5 4 3 3 2 2 1 2 4 3 2 7 10 14 22 26 29 31 31 32 32 32 32 31 31 30 28 30 32 34 37 38 40 41 42 42 41 40 37 34 33 33 32 33 32 33 35 37 38 38 37 36 35 34 33 32 31 30 29 29 27 26 26 24 24 26 26 24 23
7 2 4 5 6 11 10 5 9 11 5 1 1 2 3 4 3 2 2 3 3 1 1 3 3 4 4 6 9 8 10 13 19 25 27 31 35 32 32 34 33 32 32 29 28 28 29 31 33 35 36 36 37 39 41 40 38 35 34 33 33 33 33 33 36 38 38 37 36 35 34 33 32 30 29 29 28 26 26 26 25 26 27 26 23 22
6 1 1 3 6 12 12 10 12 12 7 2 3 4 3 2 5 4 1 1 3 2 3 3 6 5 3 7 10 10 10 8 10 15 19 28 34 30 30 34 34 33 32 31 29 27 28 28 29 31 32 33 33 35 37 39 38 36 34 33 33 33 33 33 34 36 36 36 36 35 34 32 31 30 30 29 28 26 26 26 27 27 26 24 21 21
6 3 2 2 5 9 10 13 11 8 8 6 5 6 4 2 3 3 1 1 1 4 3 3 8 5 1 5 5 5 11 11 9 10 13 20 25 26 31 34 34 33 32 31 29 28 27 26 26 27 29 30 30 30 32 35 36 35 34 34 34 34 34 33 33 34 34 35 35 34 33 32 31 30 29 28 27 26 26 28 28 27 25 23 21 21
6 5 2 1 3 3 3 9 7 3 4 5 5 8 6 2 2 3 3 2 3 4 3 3 5 4 5 7 2 1 7 9 10 10 10 12 18 25 32 35 34 31 29 27 25 24 24 23 22 23 25 25 24 25 28 32 33 34 35 35 35 35 34 33 33 33 34 34 34 33 32 31 30 29 29 28 28 27 28 29 28 26 25 23 21 21
4 5 1 2 2 3 2 5 7 5 2 3 4 7 3 1 3 3 3 2 2 4 4 3 3 3 7 7 4 6 8 8 11 10 8 12 19 21 24 29 32 31 30 27 22 20 20 21 21 20 21 21 20 22 25 29 32 33 34 34 34 35 35 35 34 34 34 34 34 33 32 31 30 30 29 29 29 29 29 29 28 26 26 25 24 23
3 4 4 1 1 4 3 4 8 10 7 4 6 7 4 1 2 1 2 2 3 4 3 2 3 6 6 4 8 11 10 9 8 7 7 11 15 16 15 19 23 26 28 27 23 21 21 21 21 19 19 20 20 22 24 26 29 30 31 32 33 34 35 36 36 35 35 35 35 34 33 32 31 30 29 29 29 29 29 30 29 27 27 26 26 26
2 3 6 5 3 4 4 4 6 9 9 8 7 8 9 7 4 3 5 2 2 3 3 3 5 7 5 4 7 9 7 5 3 3 7 12 16 16 15 15 17 18 20 21 21 21 22 22 20 18 19 19 19 20 21 23 24 25 27 28 30 31 32 33 34 34 35 35 35 34 33 32 31 30 29 29 29 29 30 31 29 28 27 27 28 28
4 5 6 4 4 5 4 3 5 7 7 5 3 5 7 6 5 5 5 3 2 2 2 3 3 7 4 6 7 7 6 7 8 7 11 18 21 20 19 18 18 17 15 16 16 17 19 20 19 18 18 18 18 19 20 21 22 24 26 27 29 30 31 31 32 33 33 33 33 33 32 31 30 30 29 29 30 32 32 31 29 28 27 28 30 29
6 5 5 5 2 3 4 3 0 2 4 5 5 3 5 5 5 3 2 3 3 3 4 2 3 7 4 3 5 5 5 7 9 8 12 19 21 20 19 18 18 18 15 14 14 14 16 18 18 18 18 18 19 19 21 22 24 26 27 28 30 31 32 32 32 33 32 32 31 30 30 30 29 29 29 30 33 33 31 30 29 28 28 30 31 27
4 3 5 7 4 1 3 1 2 2 4 6 4 5 5 5 3 2 1 1 0 5 7 4 7 9 4 2 1 1 2 4 7 8 9 14 16 17 17 17 16 16 15 14 14 14 16 17 17 18 18 18 19 20 21 23 24 25 25 27 29 30 31 32 33 33 33 32 31 30 30 30 29 29 30 31 32 31 30 31 30 29 29 30 28 25
6 5 6 8 8 8 6 6 7 6 4 3 5 10 11 10 10 7 3 2 5 8 9 8 11 8 2 5 4 2 2 3 8 10 10 10 13 16 18 18 15 12 12 13 14 15 16 17 17 17 18 18 18 19 19 21 21 22 23 24 25 26 27 29 30 31 31 31 31 30 30 29 28 29 29 29 29 29 30 32 30 29 29 27 25 25
5 4 8 10 10 11 9 5 7 12 10 9 12 16 15 13 13 9 5 7 8 4 7 14 16 9 6 7 7 5 1 1 4 7 9 11 14 16 15 16 15 12 11 11 13 15 16 17 16 16 16 16 17 17 17 19 19 20 20 21 22 23 24 25 26 28 29 29 29 28 28 28 27 27 27 27 28 30 31 31 29 27 27 26 26 27
4 6 12 11 5 2 3 5 11 18 17 15 15 17 17 16 13 11 12 12 4 5 8 16 14 13 10 5 4 10 7 3 4 4 8 12 15 17 17 18 18 14 12 10 12 15 15 15 15 15 15 15 15 16 17 18 19 19 19 19 19 21 22 23 24 25 26 26 26 25 25 25 25 26 26 26 27 28 29 29 28 28 27 28 28 28
3 6 8 5 1 5 4 8 12 14 12 12 16 18 19 19 18 19 20 13 7 7 14 8 7 15 12 5 7 10 11 12 7 3 7 13 16 17 18 21 23 19 14 11 10 11 12 13 14 13 14 14 15 16 17 18 19 19 19 19 19 20 21 22 22 22 23 23 23 23 23 23 24 25 25 25 25 27 28 29 29 30 30 29 29 29
3 3 2 5 3 7 5 6 9 9 7 6 12 15 16 20 23 23 22 15 9 14 17 4 4 15 10 5 7 9 15 21 15 9 13 16 19 19 16 18 22 22 18 12 10 10 10 11 12 13 14 15 16 17 17 17 18 19 19 19 19 19 19 20 21 20 21 23 23 23 23 23 25 25 26 26 28 30 30 31 31 31 30 30 30 30
3 3 2 6 5 7 6 3 5 7 9 8 10 13 15 18 20 21 20 15 13 18 17 7 12 16 8 9 10 13 17 19 16 18 22 21 20 18 15 16 19 21 20 15 10 10 10 10 12 13 14 15 16 16 17 17 17 18 19 19 18 17 17 19 21 22 25 27 27 27 27 27 28 29 29 30 31 31 30 30 31 31 30 31 31 32
4 2 2 6 5 2 3 3 6 6 6 4 10 16 18 17 16 17 16 15 17 18 13 9 15 14 6 10 12 16 17 16 16 21 25 24 20 15 14 18 20 20 21 19 16 15 13 12 13 14 15 15 16 16 16 16 17 18 19 19 18 17 17 18 21 24 26 29 29 29 29 30 31 31 31 31 30 29 29 29 30 30 30 32 32 33
5 5 3 5 5 2 4 3 7 7 6 3 12 17 20 18 16 16 15 17 20 15 10 13 16 8 5 8 10 11 12 15 21 25 29 30 27 20 18 20 20 20 20 22 24 23 20 17 15 15 16 16 16 15 14 15 17 17 18 18 17 18 17 18 21 23 25 27 27 27 27 28 29 29 29 29 28 28 29 29 30 30 31 33 33 33
9 8 5 5 6 4 5 5 7 5 1 7 8 13 21 23 22 21 20 20 20 17 15 16 13 4 5 9 10 10 13 20 28 34 38 38 35 30 25 21 21 23 24 24 27 29 28 24 20 19 18 17 16 14 14 15 16 16 17 18 18 19 19 19 21 23 24 25 25 25 26 26 28 28 28 28 28 28 29 29 30 31 32 33 34 34
11 9 5 4 5 4 5 6 6 6 9 6 1 10 22 26 25 24 20 18 20 20 20 20 17 12 9 10 13 17 22 28 33 36 38 39 39 36 30 25 25 26 27 28 28 28 28 24 20 19 17 16 15 14 14 15 15 17 19 20 20 20 20 20 21 23 24 25 24 24 25 25 26 27 27 27 28 28 29 29 31 32 33 34 34 34
12 10 5 3 4 3 4 7 8 7 6 5 2 4 10 12 13 14 14 16 18 19 20 21 21 18 14 14 19 24 26 27 27 30 33 34 35 36 34 31 30 28 29 31 28 23 22 20 18 16 14 14 14 13 13 14 15 17 19 20 21 22 22 22 23 23 24 25 25 24 25 25 26 26 27 27 28 29 30 31 32 34 35 35 35 34
11 10 5 3 3 3 5 7 5 5 8 6 5 4 5 7 9 11 11 14 16 17 18 19 18 18 17 19 26 28 24 17 14 21 31 33 32 36 39 38 35 32 31 31 27 22 21 20 18 15 14 13 12 12 12 12 15 17 19 21 23 23 24 25 25 25 25 25 26 26 26 26 26 26 27 28 29 30 31 33 34 35 36 36 36 34
7 7 6 6 3 3 5 4 4 5 7 5 4 6 11 15 15 13 8 9 10 17 23 21 17 17 15 18 25 24 16 10 6 15 33 41 39 40 41 40 39 35 31 30 28 26 24 22 20 18 17 15 13 12 12 13 15 17 19 21 24 25 27 28 27 27 27 27 27 27 27 27 27 28 28 29 30 31 32 34 35 36 37 37 35 34
5 4 5 6 3 4 7 6 7 9 9 3 6 7 14 20 18 11 2 7 7 17 28 25 18 18 19 22 23 16 9 6 6 17 38 45 40 38 37 37 37 34 31 31 30 29 26 25 23 22 20 18 14 12 12 13 15 17 19 21 23 26 29 30 30 29 28 28 28 28 28 28 29 29 29 30 31 32 34 35 37 38 38 37 35 34
6 4 4 5 4 5 6 5 5 6 6 5 8 9 16 23 20 12 1 9 7 12 22 23 20 23 26 25 16 10 7 10 13 24 38 36 29 29 28 28 30 30 29 30 30 29 28 27 26 24 22 19 15 13 12 13 14 16 18 20 22 26 29 30 29 27 27 27 28 28 29 30 30 30 31 31 33 34 35 37 38 39 38 37 36 34
4 3 5 7 6 5 6 6 5 5 6 6 6 13 24 23 12 6 7 8 5 8 15 20 24 29 28 21 14 12 19 29 31 32 29 21 17 18 16 16 19 20 22 23 24 23 23 22 21 19 18 17 15 13 12 12 13 15 16 18 21 22 24 25 27 28 28 28 29 30 31 31 31 31 32 33 34 35 37 38 38 39 38 37 36 35
7 6 6 7 6 4 4 5 3 6 7 8 8 14 22 15 3 7 9 5 5 8 12 17 21 25 25 25 25 27 32 36 36 32 24 17 14 11 8 9 9 8 10 11 11 11 11 10 10 11 11 12 12 11 10 10 12 13 14 16 18 18 20 23 26 28 29 30 30 31 31 32 32 33 33 34 35 37 38 39 39 39 38 37 37 36
9 9 8 8 6 4 3 5 4 7 7 19 19 8 7 6 5 9 9 4 5 7 10 13 13 14 20 25 28 30 30 27 27 28 26 23 18 12 9 8 5 4 5 5 5 5 4 4 4 4 5 7 8 9 9 10 11 12 13 14 14 16 20 22 24 27 29 30 31 31 31 32 33 34 34 35 36 38 39 40 40 40 39 38 37 36
7 9 9 8 7 7 7 9 7 3 8 26 25 11 12 13 7 10 13 9 6 9 10 10 9 9 13 15 16 18 20 19 19 20 20 20 19 16 14 11 9 8 6 4 3 3 1 1 1 2 2 1 2 4 6 7 9 10 11 11 12 14 17 19 22 25 27 29 30 31 32 32 33 34 35 36 37 38 40 40 40 40 39 38 37 36
11 11 7 5 6 6 6 8 5 2 13 29 23 14 26 30 14 7 15 14 11 13 10 5 5 7 7 8 8 7 9 9 10 11 12 13 14 14 14 14 12 8 5 4 4 3 3 4 5 5 4 3 2 1 3 4 6 7 8 9 11 12 13 15 18 21 23 26 28 29 31 32 33 34 35 36 38 39 40 41 41 41 40 39 38 37
6 7 7 4 3 4 6 6 4 2 11 26 22 13 28 40 24 10 13 13 12 12 8 4 6 9 8 7 7 5 4 3 3 5 7 7 8 10 11 11 10 8 8 7 6 6 7 6 5 4 3 3 3 3 4 5 6 6 7 8 10 11 12 13 15 17 19 22 24 26 29 31 32 34 35 36 38 39 40 41 41 41 41 40 39 38
3 7 6 4 4 6 9 9 10 8 13 26 28 18 22 35 30 16 13 12 9 7 7 6 9 10 9 7 5 4 4 3 3 3 5 6 7 9 10 11 12 12 10 9 9 8 7 6 4 3 3 3 3 4 5 6 6 7 7 8 9 10 12 13 14 15 17 18 21 24 26 29 31 33 34 36 38 39 40 41 41 41 41 40 40 39
6 9 8 6 8 10 9 7 12 17 19 26 31 23 20 30 34 25 18 16 12 10 10 11 11 11 9 8 7 6 6 6 5 4 5 6 8 10 11 13 14 13 11 11 10 9 7 6 4 3 2 1 2 4 6 6 7 7 8 8 8 10 11 12 13 14 15 16 18 20 23 26 29 32 34 36 38 40 41 42 42 42 42 40 40 39
9 11 10 8 8 8 7 3 6 8 9 16 25 25 23 29 36 35 31 25 19 14 14 14 14 12 10 10 10 10 9 9 8 7 7 7 8 10 13 14 15 14 14 13 12 10 9 7 5 4 2 1 3 6 8 8 8 8 8 8 9 9 9 11 11 12 13 14 16 17 20 23 26 29 32 35 37 39 41 42 42 42 41 39 38 38
11 10 7 7 9 11 8 6 12 9 4 12 26 33 31 30 34 37 37 33 26 21 19 18 18 16 14 13 12 12 12 11 10 10 10 9 10 12 14 16 16 16 15 14 13 11 10 9 8 7 4 1 3 5 8 9 10 10 9 9 9 9 9 10 11 12 13 13 14 16 18 20 23 26 30 33 36 39 40 41 41 41 40 39 38 38
13 12 11 10 11 14 13 20 27 19 9 16 33 39 35 32 32 34 36 36 33 29 25 22 21 20 19 18 16 14 13 12 12 12 12 11 12 13 15 17 17 16 16 15 14 12 11 11 10 8 5 3 2 4 6 8 10 11 11 10 9 9 10 10 11 12 12 12 13 14 16 18 20 23 27 31 35 38 40 41 41 41 40 40 39 38
Wind_Direction
158 156 195 197 178 166 175 182 177 154 161 163 156 174 160 169 236 253 198 254 69 53 271 248 247 264 270 271 272 271 261 247 247 244 243 244 244 243 242 242 241 241 244 244 241 239 238 237 237 237 237 236 235 234 233 232 231 229 228 229 229 229 232 233 234 236 237 238 237 236 235 236 236 235 237 237 236 237 240 245 246 245 247 251 252 251
166 194 209 191 167 162 177 180 162 137 136 137 143 171 160 168 242 244 230 283 49 96 258 281 289 274 269 269 270 268 248 241 244 239 242 245 245 244 243 244 245 245 246 244 242 240 238 237 236 238 239 238 238 236 235 234 232 231 230 230 230 230 232 233 234 235 236 237 238 239 238 238 239 238 239 241 240 241 244 248 250 248 247 250 253 253
181 213 185 157 157 161 173 168 156 154 151 145 138 148 167 171 240 267 277 308 9 142 266 314 307 278 275 272 270 262 239 245 250 246 247 249 247 246 246 248 248 248 248 244 243 243 240 239 237 238 239 239 240 239 238 238 235 234 232 231 230 230 231 232 234 235 235 237 239 242 242 242 243 241 240 242 243 243 245 248 252 251 249 251 253 253
190 207 150 141 152 157 165 165 159 164 164 162 148 154 188 168 184 245 268 300 331 209 261 314 312 283 279 277 274 260 245 249 254 251 253 252 250 252 251 254 253 252 251 249 247 245 243 242 239 239 240 241 242 241 241 239 238 236 234 231 231 231 231 232 233 235 235 237 241 244 242 241 241 239 236 237 237 237 238 241 245 248 251 254 254 250
164 144 143 144 154 156 159 171 167 168 181 195 185 174 160 146 154 159 219 306 357 336 287 40 313 275 260 260 267 260 242 246 250 247 250 249 248 252 252 252 253 253 254 254 251 249 246 243 241 241 242 242 242 242 241 240 239 239 236 233 233 233 233 233 233 235 236 237 239 239 236 235 236 234 232 232 232 231 233 237 239 244 249 254 256 253
162 151 153 152 161 160 160 180 179 175 182 211 214 171 146 142 131 95 59 36 35 325 318 60 291 267 256 247 253 259 237 245 247 237 242 246 245 245 246 249 252 253 255 256 255 252 249 246 244 243 242 242 242 241 241 241 241 241 239 237 236 236 235 234 234 234 236 236 237 236 233 231 232 232 230 230 230 232 234 239 242 246 247 249 254 252
167 169 163 160 163 162 169 185 182 173 168 215 200 154 145 144 132 121 90 69 132 247 290 67 222 269 307 271 260 271 265 258 253 237 240 246 245 242 244 249 251 253 254 256 258 254 250 247 245 244 243 243 243 243 243 243 242 241 240 238 238 237 236 235 235 234 235 235 235 235 234 232 233 234 234 234 235 238 241 244 247 248 248 250 253 252
153 164 166 161 158 164 181 185 181 174 163 220 180 149 148 148 147 137 98 98 204 263 290 230 165 271 287 269 261 259 264 266 260 253 248 249 248 244 245 249 252 253 255 255 257 256 251 247 246 245 245 245 246 246 245 244 243 242 241 239 238 238 237 236 235 234 234 234 233 234 233 233 234 235 237 240 242 243 243 243 243 244 246 250 252 252
142 165 169 159 157 173 184 164 163 165 154 249 161 141 142 131 122 103 89 103 125 27 276 215 136 229 265 267 265 209 248 255 252 249 245 248 250 246 245 249 252 254 256 256 257 258 253 248 247 247 247 248 247 246 245 243 244 244 242 240 239 238 237 237 236 234 234 233 234 234 234 234 233 235 237 241 244 245 242 239 238 241 244 247 250 251
134 173 168 157 162 182 161 134 157 159 120 125 117 100 90 83 80 82 94 90 56 293 254 185 152 223 265 266 222 207 240 245 249 250 238 245 250 249 247 248 251 253 254 255 256 257 256 250 248 249 251 250 247 245 244 243 242 242 240 239 238 237 237 236 235 235 234 234 233 233 234 234 234 234 236 239 242 243 242 240 238 240 244 248 249 250
14 142 159 153 157 158 125 124 151 140 126 124 107 89 79 62 59 62 67 77 71 266 253 161 168 196 270 252 208 216 228 222 236 255 252 251 253 253 251 249 250 251 252 252 253 255 256 254 251 249 248 246 244 244 242 241 240 238 237 237 236 236 236 235 235 235 234 234 233 233 234 234 234 233 234 237 240 241 241 240 240 240 243 247 248 248
41 114 163 146 140 136 114 104 118 125 131 124 109 116 97 51 40 35 8 55 217 246 295 169 161 172 239 243 211 234 239 210 219 228 239 247 249 252 253 252 251 251 251 250 251 253 254 254 251 248 245 241 241 241 240 241 239 237 236 236 236 235 234 234 234 234 234 234 234 234 234 234 234 235 235 237 239 241 242 242 242 242 242 244 244 245
90 120 238 128 148 146 127 111 98 127 143 127 130 140 119 98 109 131 249 190 236 237 227 175 149 187 241 242 244 250 251 247 238 230 238 246 249 251 250 250 252 252 251 248 249 249 250 251 250 248 246 243 241 240 240 241 240 238 236 235 236 236 234 233 233 234 234 234 234 234 234 234 235 235 236 238 240 242 243 243 243 242 241 242 242 242
117 336 273 146 169 173 156 146 154 170 169 155 150 154 152 146 156 194 198 234 250 248 237 166 149 256 272 255 241 242 237 237 240 244 250 254 258 259 254 248 247 249 250 249 249 248 248 249 251 250 250 248 246 243 241 241 241 239 237 236 237 237 235 233 232 233 234 234 235 234 235 235 234 235 236 238 240 241 242 242 241 241 243 243 242 241
155 255 205 182 182 181 173 163 154 142 147 167 164 152 162 165 177 189 184 202 216 242 285 216 169 226 233 251 253 252 249 246 246 250 255 257 259 260 258 253 247 245 247 249 249 249 249 250 251 252 253 253 251 247 242 241 240 239 237 236 237 237 235 233 232 232 233 234 235 235 235 235 234 236 236 237 239 239 238 239 238 239 242 245 244 241
164 214 203 172 155 162 168 151 129 125 130 225 130 125 192 184 141 137 184 184 157 141 231 211 230 220 210 272 279 270 265 260 254 255 257 256 255 254 254 254 251 246 244 244 247 248 248 250 251 253 253 253 252 248 242 238 237 236 235 236 237 237 236 235 233 233 233 234 235 235 235 235 234 234 234 234 235 234 234 235 235 237 241 246 244 237
165 157 20 95 140 170 174 159 152 155 153 153 178 183 198 150 107 108 220 62 86 228 230 193 245 278 310 282 270 249 249 260 259 256 251 249 249 250 250 250 250 248 244 242 244 245 248 250 252 253 253 252 251 248 242 234 232 231 231 234 236 235 234 234 233 233 233 234 234 234 234 234 233 233 232 232 230 229 229 229 232 235 239 243 239 229
149 87 343 88 151 193 177 153 166 180 147 137 186 183 136 71 82 115 186 31 93 242 268 212 235 260 285 269 279 242 245 257 263 257 251 250 250 253 253 247 244 247 246 244 242 242 245 250 254 255 254 252 251 247 239 230 227 227 228 231 232 232 233 233 233 232 232 234 234 234 234 232 233 232 232 231 228 226 226 227 231 234 236 238 235 229
128 86 319 270 149 197 152 144 169 227 158 140 163 166 144 122 189 162 166 186 194 233 280 278 256 245 216 235 287 259 240 253 265 265 264 260 250 250 255 254 253 256 256 255 253 250 249 253 259 259 254 251 247 240 232 226 225 226 227 229 230 231 232 232 233 232 232 233 233 233 233 232 232 232 230 228 226 226 227 230 234 234 232 230 229 230
113 104 171 265 174 152 139 167 180 187 166 64 125 169 177 68 169 182 170 169 179 207 247 297 314 254 225 214 204 227 234 236 254 263 257 254 254 256 261 263 267 271 273 274 273 267 259 255 259 259 251 244 236 229 225 223 226 227 228 230 231 231 231 230 231 231 231 231 231 231 231 231 231 231 230 227 226 227 228 231 236 234 227 222 224 227
76 108 137 186 184 159 190 210 187 175 165 150 161 181 201 167 125 165 181 145 132 166 208 265 282 261 246 199 192 217 229 227 243 267 265 269 283 293 289 278 276 276 274 274 271 263 256 249 250 249 242 235 227 224 223 224 227 229 231 233 233 233 232 231 231 231 231 231 231 231 231 231 231 230 230 227 226 228 228 230 234 230 222 218 220 223
78 109 129 144 173 182 212 209 182 184 182 178 178 182 189 182 142 166 203 184 134 166 171 181 257 269 243 198 205 217 231 244 260 292 287 294 306 312 309 299 292 285 272 264 257 251 246 241 239 236 232 229 226 226 227 229 231 233 235 236 236 236 236 235 235 234 233 233 232 232 232 232 232 231 229 226 225 226 228 229 229 224 218 216 218 222
103 101 115 131 177 200 239 234 191 195 188 184 205 187 180 186 171 175 206 198 154 199 156 134 275 280 231 188 202 211 223 249 255 255 272 286 294 297 301 299 293 290 279 259 249 245 240 236 232 228 227 228 229 232 234 236 238 239 240 241 241 241 240 239 238 237 236 236 234 233 233 232 232 230 228 223 221 223 226 227 224 220 216 215 218 222
108 98 104 100 144 244 295 312 225 160 173 201 229 179 153 200 203 158 172 177 165 208 191 148 263 265 250 187 193 216 243 267 275 276 271 279 290 296 300 301 292 285 277 258 245 239 234 231 229 227 228 231 233 237 239 241 242 243 244 245 245 244 243 241 239 237 236 235 234 233 232 231 230 228 225 220 219 223 224 221 220 219 215 215 219 218
130 119 128 120 131 243 325 314 224 221 202 202 198 172 177 196 173 120 170 140 269 219 182 174 243 249 270 296 244 289 317 303 310 320 296 284 299 313 317 315 300 283 273 257 240 231 228 227 228 229 231 234 237 241 242 244 245 245 246 247 247 247 245 242 240 238 237 236 235 234 232 232 230 226 223 220 220 221 217 215 219 219 215 216 216 210
144 143 149 142 156 183 195 202 201 187 177 176 168 181 194 188 177 188 187 164 237 215 169 189 233 234 252 280 295 27 64 0 337 339 337 316 316 327 327 323 313 293 277 257 237 228 226 227 229 231 235 240 244 246 247 247 248 248 248 247 247 247 244 242 240 237 236 235 234 233 231 230 226 221 219 218 216 214 211 213 219 217 214 215 212 207
113 167 191 184 183 191 194 186 140 131 150 188 185 182 192 194 188 184 172 203 221 184 175 218 230 232 233 252 291 306 226 168 304 319 343 345 338 341 340 333 327 311 290 263 238 230 228 230 234 239 244 249 251 251 250 251 250 250 249 247 246 244 240 237 235 232 230 229 228 227 225 222 218 215 215 213 209 209 211 214 216 216 215 215 211 206
108 201 202 199 211 224 142 137 135 145 167 185 175 179 193 193 188 190 202 213 172 107 227 232 227 240 242 208 263 288 286 229 209 271 335 345 339 341 345 342 336 324 303 277 249 237 235 239 242 246 250 251 252 252 251 252 252 250 248 246 243 240 235 231 228 225 223 221 219 218 216 214 210 209 211 211 208 208 211 212 214 216 217 213 207 204
129 203 192 170 275 360 76 140 151 155 169 174 172 184 191 187 193 204 212 211 148 182 239 230 192 234 242 177 201 244 267 268 252 259 312 315 312 318 331 333 329 322 309 293 273 256 250 252 251 252 255 254 252 252 250 249 250 248 247 243 237 234 231 226 223 219 215 212 212 213 211 208 207 208 211 212 210 209 211 214 216 216 213 208 203 201
98 189 147 110 89 1 27 145 154 144 137 161 184 190 189 192 200 208 215 216 202 228 248 266 264 258 246 195 214 217 237 259 275 283 279 280 282 291 309 316 315 314 309 305 300 287 276 269 263 256 253 252 251 253 252 250 249 248 247 245 239 235 230 224 219 214 208 208 211 212 211 210 210 211 211 210 211 213 215 215 213 209 205 202 200 198
94 162 107 103 92 0 358 93 112 135 150 171 197 201 198 199 205 213 218 217 219 239 248 265 288 277 232 190 235 251 248 258 275 277 271 267 265 274 288 293 297 301 301 301 301 297 294 289 281 268 258 255 253 253 255 253 250 247 245 245 244 240 233 224 218 213 208 209 211 211 212 213 213 214 214 214 214 214 213 210 206 203 200 199 198 196
75 101 71 91 99 330 309 85 91 110 128 170 221 215 203 199 205 213 216 210 215 230 234 241 260 261 201 172 219 252 261 265 270 271 275 277 271 262 267 278 285 288 289 290 287 285 289 292 293 287 276 268 260 256 258 256 251 248 245 244 243 241 235 225 219 215 212 211 213 213 214 215 216 216 216 214 212 210 207 205 202 201 200 198 197 197
118 123 113 115 131 234 270 151 117 86 56 294 245 214 197 200 205 209 216 215 213 214 210 223 236 232 139 158 200 230 243 250 257 260 264 271 271 263 260 270 279 281 281 285 281 277 280 286 292 288 280 276 270 264 263 260 256 254 250 244 240 236 233 227 220 216 214 212 213 214 214 214 213 212 210 208 206 206 204 203 202 201 201 200 199 199
149 140 154 159 145 195 226 157 110 88 197 246 234 178 180 197 202 205 214 214 209 212 218 230 241 226 144 172 193 208 220 233 245 248 251 257 261 263 264 265 272 276 279 283 279 274 277 284 288 282 277 280 279 269 259 255 253 251 246 241 237 233 232 229 222 217 214 212 211 211 210 210 208 205 204 204 204 205 204 204 203 203 202 201 201 202
155 143 154 156 124 161 189 139 131 197 220 243 270 159 182 197 200 205 217 217 211 218 228 238 245 238 211 198 205 217 228 237 243 245 247 249 252 257 262 264 268 273 277 280 278 275 278 281 281 278 275 278 280 271 260 254 249 245 241 237 234 230 228 226 222 217 213 211 210 208 206 205 204 203 203 205 206 207 206 206 206 204 203 204 205 205
162 155 147 140 128 136 157 162 183 224 266 295 303 188 185 186 189 201 225 235 223 218 226 234 238 239 232 223 224 229 236 243 248 248 246 246 247 250 255 259 264 268 274 277 275 275 279 277 274 277 276 273 272 267 260 255 249 246 241 236 233 229 225 224 220 216 213 209 207 206 205 205 205 205 206 208 210 211 210 208 207 206 206 206 206 206
174 165 145 154 171 137 156 190 221 320 316 272 228 200 160 145 161 180 216 240 226 215 225 230 233 239 236 231 235 238 241 249 260 257 251 247 245 247 251 256 262 266 271 271 266 267 274 274 275 281 280 273 269 262 255 250 246 244 241 236 233 229 226 224 220 216 213 210 208 208 208 209 210 211 213 214 215 214 213 211 209 208 208 208 208 207
172 173 161 167 181 109 131 196 251 277 265 238 167 169 173 167 169 171 198 243 221 208 218 223 226 231 229 233 236 232 231 247 265 258 254 251 249 248 250 254 258 261 261 260 260 266 272 275 278 281 278 274 272 265 256 247 243 242 241 237 234 230 227 225 221 218 215 214 214 214 215 216 217 218 219 219 219 218 215 213 212 211 211 211 210 209
129 146 148 145 158 157 158 185 207 222 241 199 138 174 182 168 153 130 145 265 224 203 211 213 216 221 221 226 224 204 194 231 243 251 254 255 254 253 254 256 258 260 259 259 263 267 268 271 274 273 273 273 273 268 259 251 244 240 239 238 235 232 230 227 224 221 220 220 221 221 222 223 222 223 223 223 222 220 217 216 214 212 212 211 211 212
144 156 160 160 180 178 175 196 215 239 250 198 174 188 171 154 136 107 107 261 242 211 210 205 207 218 221 220 208 166 176 216 232 251 255 257 259 259 260 262 261 261 261 259 261 262 262 265 267 266 267 270 271 269 262 256 250 243 241 240 238 237 236 233 231 229 227 228 228 228 229 228 227 227 226 225 223 221 218 217 215 213 212 211 212 213
151 190 196 187 185 167 176 210 250 269 237 212 193 167 151 139 127 142 203 235 226 204 204 199 207 219 220 209 185 184 219 229 235 247 254 259 263 262 266 269 264 261 259 255 255 258 258 261 265 266 268 270 271 273 271 265 258 252 246 242 241 242 242 240 237 234 232 232 232 232 232 231 230 229 227 225 224 221 219 217 216 215 215 214 213 213
174 186 195 189 178 159 178 203 274 281 226 167 142 157 154 144 171 205 194 199 183 182 190 196 208 220 218 208 204 215 230 236 238 243 248 253 258 261 267 269 259 250 249 248 250 255 257 263 271 272 271 268 263 264 265 261 258 255 249 245 245 244 243 241 239 236 235 235 234 234 233 232 230 229 227 225 223 221 219 217 216 216 216 215 215 215
173 169 189 197 173 143 171 182 209 267 205 139 127 141 181 183 188 171 164 167 167 167 176 184 196 213 216 217 221 227 235 242 244 245 247 246 247 250 252 245 224 221 248 258 256 257 261 268 273 268 260 254 247 244 242 242 246 249 248 247 245 241 240 240 241 240 238 238 237 236 235 234 232 230 228 226 223 221 219 218 216 216 216 217 217 217
174 178 190 200 181 167 187 195 197 268 168 151 147 166 202 198 180 160 170 178 169 167 169 173 191 216 220 222 228 231 237 245 249 249 248 244 243 243 240 235 241 256 268 262 237 237 224 191 144 105 114 187 234 244 246 248 252 255 257 255 249 242 241 241 242 242 242 241 240 239 237 235 233 231 229 226 224 221 219 219 218 217 217 217 218 219
198 192 169 168 187 185 203 211 200 150 169 171 170 178 190 194 201 184 181 179 168 171 169 159 189 202 196 197 204 209 221 235 243 246 246 241 238 236 235 238 245 248 236 207 201 182 145 133 112 95 89 75 55 348 302 284 273 271 270 265 258 253 249 246 244 245 245 245 244 242 240 238 235 233 230 228 225 223 221 220 219 219 219 218 219 220
201 174 139 137 203 260 266 231 187 146 181 184 187 193 194 197 202 189 175 172 159 165 170 155 167 168 159 170 184 184 189 199 214 230 232 224 218 218 221 222 214 201 195 197 191 171 153 140 123 115 98 64 36 359 339 315 293 284 274 264 260 257 253 250 248 248 248 248 247 245 243 241 238 235 232 229 227 225 224 223 222 221 221 220 220 221
211 169 152 143 164 207 235 217 178 180 194 190 193 202 201 200 199 184 168 174 171 175 191 186 174 169 165 173 184 182 180 177 174 188 190 189 195 197 195 192 187 186 193 194 184 172 164 158 154 141 106 62 32 10 352 328 309 297 278 264 256 250 248 248 248 249 249 249 249 247 244 242 240 237 234 231 228 225 224 223 223 223 223 223 223 223
189 172 172 178 173 187 220 215 179 186 195 193 195 199 199 201 202 197 193 202 208 208 206 200 191 184 177 181 193 202 204 204 207 209 198 192 195 193 191 189 187 188 193 192 187 184 181 180 176 151 112 55 25 13 355 335 316 301 285 274 261 251 249 249 248 249 250 250 250 250 247 244 242 239 236 233 230 227 224 223 223 224 225 227 228 229
142 161 179 183 180 204 248 256 151 171 206 209 203 201 199 202 206 208 212 217 216 208 202 201 202 201 194 194 201 209 216 218 221 225 225 220 214 206 198 193 190 192 196 195 194 196 197 197 196 186 175 57 17 2 346 331 313 298 289 280 270 260 255 253 250 250 250 249 249 250 248 246 244 241 238 235 231 229 227 225 225 226 227 228 231 233
146 172 182 159 178 214 231 175 156 164 220 215 204 201 200 202 206 211 216 220 220 216 210 205 203 203 207 214 218 218 221 225 227 231 235 235 229 217 207 200 197 198 199 201 204 206 205 206 205 198 190 165 1 340 325 313 301 293 287 278 270 264 258 255 253 252 250 249 249 249 249 248 246 243 240 237 233 231 229 227 226 227 227 229 231 233
179 179 169 167 200 219 202 174 176 189 214 206 201 201 200 199 204 210 216 221 225 225 221 215 212 212 216 221 225 224 224 226 228 231 236 238 234 224 213 207 204 204 205 207 209 211 212 213 212 204 197 206 255 279 283 283 282 282 279 275 271 266 260 257 256 255 254 254 254 254 253 251 248 245 241 238 234 232 230 229 228 227 227 229 230 232
Height
1531 1536 1537 1534 1537 1542 1544 1545 1546 1547 1548 1551 1555 1558 1559 1562 1562 1561 1561 1560 1559 1560 1558 1557 1557 1554 1551 1549 1545 1544 1545 1543 1542 1542 1541 1541 1541 1542 1542 1543 1543 1543 1545 1549 1551 1551 1552 1553 1554 1556 1557 1558 1559 1560 1562 1563 1564 1565 1567 1568 1569 1571 1573 1575 1575 1577 1578 1579 1580 1581 1582 1582 1584 1585 1587 1588 1589 1589 1590 1591 1591 1591 1592 1592 1592 1593
1531 1531 1529 1530 1534 1538 1541 1543 1545 1548 1549 1552 1556 1558 1561 1563 1562 1560 1560 1559 1558 1559 1558 1555 1555 1553 1550 1547 1542 1542 1543 1541 1539 1538 1537 1537 1537 1538 1539 1540 1540 1541 1543 1547 1548 1548 1548 1550 1551 1553 1554 1555 1555 1557 1558 1559 1561 1562 1563 1565 1566 1569 1570 1571 1573 1574 1575 1576 1578 1579 1580 1581 1582 1583 1585 1586 1587 1588 1588 1589 1589 1589 1589 1590 1590 1590
1530 1526 1525 1529 1532 1536 1540 1542 1545 1548 1549 1553 1557 1560 1562 1563 1562 1560 1559 1558 1557 1558 1558 1555 1555 1552 1547 1543 1539 1540 1540 1536 1534 1534 1534 1534 1534 1535 1536 1536 1537 1538 1541 1543 1544 1544 1545 1547 1549 1550 1550 1551 1552 1554 1555 1556 1558 1559 1560 1562 1563 1565 1566 1568 1570 1571 1572 1574 1576 1577 1578 1579 1580 1581 1583 1584 1585 1585 1586 1586 1587 1587 1587 1588 1588 1588
1526 1524 1525 1528 1531 1535 1540 1542 1544 1547 1549 1552 1556 1559 1560 1560 1562 1561 1559 1559 1558 1558 1558 1555 1555 1550 1545 1541 1535 1534 1535 1531 1530 1531 1530 1531 1531 1531 1532 1533 1534 1536 1537 1539 1540 1541 1542 1544 1545 1546 1547 1548 1550 1551 1552 1553 1554 1555 1556 1558 1560 1561 1563 1565 1567 1568 1570 1572 1573 1575 1576 1577 1578 1579 1580 1580 1581 1582 1583 1583 1584 1585 1585 1586 1586 1586
1522 1522 1523 1527 1530 1534 1539 1543 1543 1547 1551 1552 1553 1555 1557 1559 1560 1559 1560 1560 1558 1559 1556 1555 1556 1548 1541 1540 1532 1527 1531 1528 1527 1528 1527 1527 1528 1528 1529 1530 1531 1532 1534 1535 1536 1537 1539 1541 1542 1543 1544 1546 1547 1547 1548 1549 1551 1552 1554 1555 1556 1558 1559 1562 1563 1566 1567 1569 1570 1571 1572 1573 1574 1575 1576 1576 1577 1578 1579 1580 1581 1583 1583 1584 1584 1584
1523 1522 1522 1526 1531 1533 1538 1541 1542 1545 1550 1554 1553 1553 1555 1557 1558 1559 1560 1560 1561 1562 1556 1556 1560 1546 1535 1535 1529 1525 1528 1526 1524 1524 1522 1522 1523 1525 1525 1526 1527 1528 1530 1531 1532 1533 1535 1537 1539 1540 1541 1542 1542 1543 1545 1547 1549 1550 1551 1552 1553 1554 1556 1558 1560 1562 1564 1565 1566 1567 1568 1569 1570 1571 1572 1572 1574 1575 1577 1578 1579 1581 1581 1582 1582 1582
1522 1521 1521 1525 1529 1533 1537 1539 1540 1541 1549 1554 1551 1550 1553 1554 1557 1558 1560 1561 1564 1565 1559 1559 1563 1553 1539 1532 1527 1527 1527 1524 1522 1520 1519 1518 1519 1521 1521 1521 1522 1524 1525 1527 1528 1529 1531 1533 1535 1536 1537 1538 1539 1541 1543 1545 1546 1546 1547 1549 1550 1551 1552 1554 1556 1558 1560 1561 1562 1563 1564 1565 1567 1568 1569 1570 1572 1573 1575 1577 1578 1579 1579 1579 1579 1580
1517 1520 1522 1523 1527 1533 1535 1536 1538 1539 1547 1551 1546 1548 1551 1553 1556 1558 1561 1565 1565 1565 1561 1558 1562 1565 1552 1531 1524 1527 1525 1521 1519 1517 1516 1516 1516 1517 1517 1517 1518 1519 1521 1523 1524 1525 1527 1529 1530 1532 1533 1535 1537 1539 1541 1541 1541 1542 1544 1546 1547 1548 1549 1550 1552 1554 1555 1557 1558 1559 1561 1562 1563 1565 1567 1568 1570 1571 1573 1574 1575 1576 1576 1576 1577 1577
1514 1518 1521 1521 1526 1531 1530 1531 1534 1536 1543 1547 1546 1548 1551 1554 1558 1559 1564 1566 1566 1567 1562 1556 1561 1566 1550 1527 1523 1525 1522 1518 1513 1511 1513 1513 1512 1512 1512 1513 1514 1515 1517 1518 1520 1521 1523 1525 1526 1528 1530 1532 1534 1535 1536 1537 1538 1539 1541 1543 1544 1544 1546 1547 1549 1550 1551 1553 1554 1556 1557 1558 1560 1562 1564 1566 1567 1568 1570 1571 1572 1573 1573 1574 1574 1575
1515 1515 1517 1518 1523 1527 1527 1529 1531 1534 1541 1545 1547 1549 1553 1558 1559 1563 1565 1565 1568 1567 1558 1555 1560 1560 1544 1524 1524 1525 1517 1513 1509 1507 1509 1508 1508 1508 1508 1509 1510 1511 1513 1514 1516 1517 1519 1522 1523 1525 1527 1528 1530 1531 1532 1533 1534 1535 1537 1539 1539 1540 1542 1544 1545 1546 1548 1550 1551 1553 1554 1555 1557 1559 1561 1562 1563 1565 1566 1567 1569 1570 1571 1571 1572 1572
1515 1516 1517 1518 1521 1523 1525 1530 1532 1535 1539 1543 1547 1550 1557 1562 1561 1565 1565 1565 1571 1564 1553 1552 1553 1558 1549 1523 1516 1517 1509 1507 1507 1507 1507 1505 1504 1504 1504 1506 1506 1507 1509 1510 1512 1513 1516 1518 1519 1521 1522 1524 1525 1527 1528 1529 1530 1531 1533 1534 1535 1537 1538 1540 1541 1542 1544 1546 1547 1549 1550 1552 1554 1556 1557 1558 1560 1561 1562 1564 1565 1567 1568 1569 1569 1570
1517 1518 1519 1518 1520 1520 1524 1531 1534 1536 1537 1541 1545 1549 1558 1565 1565 1568 1568 1569 1570 1558 1551 1551 1550 1557 1549 1520 1510 1510 1503 1504 1506 1504 1504 1502 1501 1500 1501 1502 1503 1504 1504 1506 1508 1510 1512 1514 1515 1517 1518 1520 1521 1522 1524 1524 1526 1527 1529 1530 1531 1533 1534 1536 1538 1539 1540 1542 1543 1545 1547 1549 1551 1552 1554 1555 1556 1558 1559 1561 1562 1564 1565 1566 1566 1567
1519 1519 1520 1519 1519 1518 1522 1532 1539 1540 1538 1540 1543 1546 1556 1568 1571 1570 1571 1571 1565 1554 1551 1551 1550 1548 1530 1510 1507 1505 1502 1504 1503 1501 1500 1499 1498 1497 1497 1499 1499 1500 1501 1502 1504 1506 1508 1509 1510 1512 1513 1515 1516 1518 1520 1521 1522 1524 1525 1526 1527 1528 1531 1532 1534 1535 1536 1537 1539 1541 1543 1545 1547 1549 1550 1552 1553 1555 1556 1558 1559 1560 1561 1562 1563 1564
1520 1522 1521 1519 1520 1517 1516 1525 1535 1538 1537 1538 1539 1540 1548 1561 1567 1566 1567 1567 1558 1551 1550 1550 1550 1539 1516 1503 1500 1496 1497 1499 1497 1497 1497 1495 1496 1495 1494 1496 1495 1496 1497 1498 1500 1501 1503 1504 1506 1507 1508 1510 1511 1513 1516 1517 1518 1520 1521 1522 1523 1525 1527 1528 1530 1531 1532 1533 1534 1537 1539 1541 1544 1545 1547 1549 1550 1552 1553 1555 1556 1557 1558 1559 1560 1561
1511 1517 1515 1514 1516 1514 1514 1518 1523 1529 1534 1535 1533 1534 1538 1544 1548 1550 1553 1554 1550 1550 1553 1552 1545 1528 1509 1500 1494 1491 1494 1494 1492 1494 1492 1492 1493 1492 1492 1492 1491 1492 1493 1495 1496 1497 1498 1499 1501 1502 1503 1504 1506 1508 1510 1512 1514 1516 1517 1518 1519 1521 1523 1524 1525 1526 1527 1529 1531 1533 1535 1537 1539 1541 1543 1545 1547 1549 1550 1552 1553 1554 1555 1556 1557 1559
1502 1506 1507 1508 1510 1511 1515 1518 1519 1525 1535 1538 1535 1535 1535 1532 1533 1541 1545 1543 1544 1547 1549 1546 1532 1512 1501 1495 1490 1491 1492 1491 1492 1491 1490 1489 1488 1489 1489 1487 1487 1488 1489 1491 1492 1493 1494 1495 1496 1497 1498 1499 1500 1502 1504 1507 1509 1511 1513 1515 1516 1518 1519 1520 1521 1522 1524 1525 1527 1529 1531 1533 1535 1537 1540 1541 1543 1545 1547 1549 1550 1551 1552 1553 1554 1556
1499 1506 1510 1510 1512 1512 1513 1516 1517 1521 1529 1535 1537 1534 1532 1529 1529 1538 1545 1545 1547 1544 1536 1531 1519 1506 1502 1493 1484 1487 1487 1487 1490 1488 1487 1486 1484 1486 1484 1483 1484 1484 1485 1487 1488 1490 1491 1491 1492 1492 1493 1494 1495 1497 1498 1501 1504 1507 1509 1511 1512 1514 1515 1516 1517 1518 1520 1522 1523 1525 1527 1529 1531 1533 1536 1537 1540 1542 1544 1546 1547 1548 1549 1550 1552 1553
1494 1510 1517 1512 1514 1515 1513 1516 1519 1517 1520 1528 1532 1528 1526 1531 1532 1533 1540 1545 1548 1543 1530 1524 1517 1509 1508 1497 1484 1484 1485 1484 1485 1484 1484 1483 1482 1483 1480 1479 1481 1480 1482 1483 1484 1486 1487 1487 1489 1489 1489 1490 1491 1492 1494 1497 1500 1502 1505 1507 1508 1510 1511 1513 1514 1515 1517 1518 1520 1522 1523 1525 1528 1530 1532 1534 1536 1538 1540 1542 1543 1545 1546 1547 1549 1550
1487 1507 1520 1515 1515 1518 1515 1518 1522 1521 1520 1521 1522 1520 1522 1532 1535 1533 1536 1539 1542 1540 1527 1522 1520 1513 1506 1495 1484 1484 1485 1483 1482 1482 1482 1481 1479 1479 1478 1478 1478 1478 1480 1480 1481 1483 1484 1485 1486 1485 1486 1487 1487 1489 1490 1493 1496 1498 1500 1502 1504 1506 1508 1510 1511 1512 1514 1515 1516 1518 1520 1522 1524 1527 1529 1531 1533 1535 1536 1538 1540 1542 1543 1545 1546 1547
1480 1497 1518 1518 1514 1518 1518 1517 1519 1521 1522 1522 1522 1521 1520 1524 1527 1528 1530 1529 1532 1533 1524 1520 1519 1506 1494 1488 1484 1482 1482 1481 1480 1479 1479 1478 1476 1476 1478 1478 1478 1478 1478 1479 1481 1481 1481 1482 1482 1482 1484 1484 1485 1486 1487 1490 1492 1494 1496 1498 1500 1502 1504 1506 1507 1509 1510 1511 1513 1515 1517 1519 1521 1523 1525 1527 1529 1531 1533 1535 1537 1539 1540 1542 1543 1545
1479 1489 1510 1518 1517 1519 1518 1513 1511 1512 1517 1520 1521 1522 1521 1521 1523 1524 1525 1524 1524 1525 1523 1521 1513 1493 1482 1483 1480 1476 1476 1476 1477 1477 1477 1477 1477 1477 1478 1477 1476 1476 1476 1477 1478 1479 1479 1479 1479 1480 1481 1481 1483 1484 1485 1488 1489 1491 1493 1495 1497 1498 1500 1502 1503 1505 1507 1508 1510 1511 1513 1515 1517 1519 1522 1524 1526 1528 1530 1532 1534 1535 1537 1539 1541 1542
1479 1487 1503 1517 1520 1517 1511 1507 1507 1508 1509 1509 1512 1514 1513 1514 1520 1523 1524 1522 1521 1520 1520 1522 1512 1487 1476 1479 1476 1472 1475 1476 1478 1479 1477 1477 1477 1476 1476 1476 1475 1474 1473 1473 1474 1475 1476 1476 1477 1478 1478 1480 1481 1482 1484 1486 1487 1489 1491 1492 1494 1495 1496 1498 1500 1501 1503 1505 1506 1508 1510 1512 1514 1516 1518 1520 1522 1525 1526 1528 1530 1532 1534 1536 1538 1539
1477 1488 1503 1515 1516 1512 1509 1508 1508 1508 1507 1508 1509 1508 1508 1511 1513 1516 1519 1519 1520 1521 1520 1526 1518 1487 1470 1473 1473 1471 1473 1474 1476 1477 1476 1474 1473 1474 1474 1473 1473 1472 1471 1471 1470 1471 1473 1474 1475 1476 1477 1478 1479 1481 1482 1483 1485 1487 1488 1489 1490 1492 1493 1495 1496 1498 1500 1501 1503 1505 1507 1509 1511 1512 1514 1517 1519 1521 1523 1524 1527 1529 1531 1533 1535 1536
1474 1487 1502 1512 1514 1510 1507 1508 1507 1507 1507 1507 1507 1507 1509 1510 1507 1510 1514 1513 1517 1518 1515 1524 1519 1485 1465 1470 1471 1470 1472 1472 1473 1474 1473 1472 1470 1471 1472 1471 1470 1470 1468 1468 1468 1468 1470 1471 1473 1474 1475 1477 1478 1479 1480 1481 1482 1483 1484 1486 1487 1488 1490 1491 1493 1494 1496 1498 1499 1501 1504 1505 1507 1509 1511 1513 1515 1517 1519 1522 1524 1526 1528 1530 1532 1533
1470 1483 1495 1508 1517 1516 1512 1512 1509 1506 1505 1502 1502 1506 1507 1506 1508 1513 1513 1513 1516 1511 1507 1518 1511 1478 1464 1469 1469 1469 1470 1470 1472 1473 1472 1471 1470 1469 1470 1469 1468 1467 1466 1466 1466 1467 1468 1469 1471 1472 1474 1475 1476 1477 1478 1478 1479 1480 1481 1483 1483 1485 1486 1487 1489 1491 1492 1494 1496 1498 1500 1502 1504 1505 1507 1510 1512 1514 1517 1519 1521 1523 1526 1527 1529 1531
1465 1476 1483 1493 1504 1505 1500 1495 1488 1489 1498 1500 1498 1501 1501 1502 1505 1506 1510 1515 1512 1502 1501 1505 1490 1469 1464 1465 1464 1466 1468 1467 1468 1470 1470 1470 1469 1468 1468 1467 1467 1466 1465 1465 1465 1465 1466 1467 1469 1471 1472 1474 1474 1475 1476 1476 1477 1478 1478 1479 1480 1481 1483 1484 1486 1487 1489 1491 1492 1494 1496 1498 1500 1502 1504 1507 1509 1512 1515 1517 1519 1521 1523 1525 1527 1528
1463 1470 1471 1471 1474 1471 1467 1466 1464 1471 1487 1491 1490 1494 1496 1498 1499 1500 1508 1508 1496 1494 1497 1486 1471 1468 1467 1464 1462 1462 1464 1466 1467 1467 1467 1468 1467 1467 1467 1467 1466 1465 1465 1464 1464 1464 1465 1466 1468 1469 1471 1472 1473 1473 1474 1474 1474 1475 1476 1477 1478 1478 1479 1481 1482 1484 1485 1487 1489 1491 1493 1495 1498 1500 1503 1505 1508 1511 1513 1515 1517 1519 1521 1523 1525 1526
1460 1465 1463 1461 1464 1461 1459 1462 1463 1467 1474 1478 1483 1489 1491 1494 1498 1499 1498 1489 1483 1493 1492 1471 1468 1474 1468 1465 1467 1463 1461 1464 1467 1466 1466 1465 1466 1466 1466 1466 1466 1466 1465 1464 1464 1464 1464 1465 1467 1468 1469 1470 1471 1471 1472 1472 1472 1473 1474 1474 1475 1476 1477 1478 1479 1481 1483 1484 1486 1489 1491 1493 1496 1499 1501 1503 1506 1508 1510 1513 1515 1517 1519 1521 1522 1524
1453 1459 1460 1463 1470 1469 1466 1467 1466 1466 1470 1473 1478 1482 1484 1489 1492 1490 1485 1480 1482 1487 1476 1464 1471 1473 1464 1465 1468 1465 1464 1463 1464 1466 1465 1464 1465 1465 1465 1466 1466 1465 1465 1464 1464 1464 1464 1465 1466 1467 1467 1468 1468 1469 1469 1470 1470 1470 1471 1472 1473 1474 1475 1476 1478 1479 1481 1483 1485 1487 1489 1492 1494 1497 1499 1501 1503 1506 1508 1511 1513 1515 1517 1519 1520 1523
1449 1457 1463 1467 1471 1474 1474 1472 1469 1469 1473 1476 1477 1479 1481 1483 1483 1480 1478 1478 1481 1478 1469 1470 1476 1469 1463 1468 1466 1464 1466 1463 1462 1465 1464 1463 1464 1464 1465 1467 1466 1465 1465 1464 1464 1464 1464 1465 1465 1465 1466 1465 1466 1466 1467 1467 1468 1469 1469 1470 1471 1472 1473 1475 1476 1478 1480 1482 1484 1486 1488 1491 1493 1495 1497 1500 1502 1504 1506 1508 1510 1512 1514 1516 1519 1521
1448 1458 1465 1465 1470 1478 1479 1475 1473 1472 1473 1475 1478 1479 1478 1479 1480 1478 1476 1479 1481 1475 1469 1477 1479 1464 1458 1464 1465 1463 1464 1462 1462 1461 1459 1459 1461 1462 1464 1465 1464 1464 1464 1463 1464 1463 1463 1464 1464 1464 1464 1463 1464 1464 1465 1465 1466 1467 1467 1468 1470 1471 1472 1474 1475 1477 1479 1481 1483 1485 1487 1489 1492 1494 1496 1498 1500 1502 1504 1506 1508 1510 1512 1515 1517 1520
1449 1459 1464 1465 1473 1480 1480 1478 1476 1473 1473 1476 1476 1472 1472 1474 1475 1473 1472 1473 1472 1469 1473 1482 1474 1454 1450 1458 1462 1462 1461 1461 1461 1458 1456 1457 1457 1459 1461 1460 1461 1462 1462 1463 1463 1462 1462 1462 1462 1462 1462 1462 1462 1462 1463 1463 1464 1465 1465 1467 1468 1469 1471 1472 1474 1476 1477 1479 1481 1483 1485 1487 1489 1491 1493 1495 1497 1500 1502 1504 1506 1508 1511 1513 1515 1518
1448 1457 1463 1467 1473 1478 1481 1479 1472 1471 1478 1474 1457 1451 1459 1464 1465 1466 1465 1463 1462 1464 1470 1467 1451 1442 1449 1456 1457 1459 1460 1459 1457 1456 1456 1455 1453 1455 1455 1455 1457 1459 1460 1461 1461 1460 1461 1461 1461 1461 1460 1460 1460 1460 1461 1462 1462 1463 1464 1465 1467 1468 1469 1470 1472 1474 1475 1477 1479 1480 1482 1484 1486 1488 1491 1493 1496 1498 1500 1502 1505 1507 1509 1512 1514 1516
1445 1451 1458 1462 1466 1477 1483 1474 1469 1476 1476 1453 1430 1430 1444 1451 1452 1454 1453 1452 1455 1455 1452 1445 1438 1442 1451 1451 1451 1454 1455 1452 1452 1451 1452 1452 1451 1451 1451 1451 1454 1455 1456 1458 1458 1457 1458 1458 1459 1459 1458 1458 1459 1458 1459 1460 1460 1462 1462 1464 1465 1466 1467 1469 1470 1472 1473 1475 1477 1478 1480 1482 1484 1486 1489 1492 1494 1497 1499 1501 1503 1506 1508 1510 1512 1515
1441 1448 1455 1456 1463 1477 1480 1472 1475 1476 1454 1429 1423 1427 1431 1433 1437 1442 1444 1445 1448 1448 1444 1441 1441 1443 1445 1446 1447 1449 1448 1447 1447 1446 1447 1449 1449 1449 1449 1449 1450 1452 1453 1454 1454 1455 1456 1456 1456 1456 1456 1456 1456 1456 1457 1457 1458 1459 1460 1461 1463 1464 1466 1467 1468 1470 1472 1473 1475 1477 1479 1480 1482 1485 1488 1490 1493 1495 1497 1500 1502 1504 1507 1509 1511 1513
1435 1441 1447 1455 1465 1474 1474 1468 1465 1453 1430 1421 1428 1430 1427 1431 1439 1446 1449 1445 1442 1443 1442 1439 1437 1438 1442 1444 1444 1444 1444 1444 1444 1442 1443 1445 1446 1447 1446 1445 1446 1448 1450 1451 1452 1452 1453 1453 1453 1454 1454 1454 1454 1454 1455 1455 1456 1457 1458 1459 1461 1462 1464 1465 1467 1469 1470 1472 1474 1475 1477 1479 1481 1484 1486 1489 1491 1493 1495 1498 1500 1502 1505 1507 1509 1511
1431 1434 1439 1453 1463 1463 1462 1458 1449 1439 1428 1419 1420 1424 1427 1431 1435 1442 1445 1437 1431 1435 1437 1434 1434 1436 1438 1440 1440 1440 1443 1443 1442 1440 1439 1441 1442 1441 1440 1440 1442 1445 1446 1447 1448 1449 1450 1451 1451 1451 1452 1451 1452 1452 1452 1453 1454 1454 1456 1457 1459 1460 1462 1463 1465 1467 1469 1471 1472 1474 1476 1478 1480 1482 1485 1487 1489 1491 1493 1495 1498 1500 1502 1504 1506 1508
1431 1433 1433 1444 1456 1457 1457 1457 1453 1446 1431 1414 1411 1419 1422 1423 1426 1433 1437 1430 1423 1426 1428 1427 1430 1432 1433 1435 1436 1437 1441 1444 1441 1436 1433 1434 1434 1434 1435 1437 1438 1440 1442 1443 1444 1446 1447 1448 1448 1448 1449 1449 1449 1450 1450 1451 1451 1452 1454 1455 1456 1458 1460 1461 1463 1465 1467 1469 1471 1473 1475 1477 1479 1481 1483 1485 1487 1489 1491 1493 1495 1497 1499 1501 1504 1506
1432 1435 1431 1437 1450 1451 1447 1448 1448 1439 1421 1409 1412 1417 1418 1420 1423 1431 1439 1430 1415 1413 1417 1418 1422 1425 1425 1427 1428 1433 1440 1443 1438 1429 1425 1426 1429 1430 1433 1434 1435 1437 1438 1439 1441 1443 1444 1445 1445 1445 1445 1446 1447 1448 1448 1449 1449 1450 1451 1452 1454 1456 1457 1458 1461 1463 1466 1468 1469 1472 1474 1475 1477 1479 1481 1483 1485 1486 1488 1490 1492 1495 1497 1499 1502 1504
1431 1434 1434 1436 1443 1443 1439 1440 1437 1425 1413 1410 1412 1413 1417 1420 1421 1433 1442 1427 1406 1405 1409 1410 1414 1416 1416 1420 1426 1432 1436 1435 1430 1423 1420 1423 1426 1428 1430 1431 1431 1433 1434 1435 1437 1438 1440 1441 1441 1442 1443 1443 1444 1445 1446 1447 1447 1448 1449 1450 1452 1453 1454 1457 1460 1463 1465 1467 1468 1470 1471 1473 1475 1477 1478 1480 1482 1484 1486 1488 1490 1492 1494 1496 1499 1501
1433 1434 1432 1432 1436 1439 1438 1436 1430 1418 1408 1409 1411 1411 1415 1421 1424 1429 1427 1412 1401 1404 1405 1406 1410 1411 1413 1419 1424 1426 1425 1422 1420 1419 1419 1422 1424 1425 1427 1428 1428 1429 1430 1431 1433 1434 1436 1437 1438 1439 1440 1441 1442 1443 1444 1445 1445 1446 1447 1448 1449 1450 1453 1456 1459 1461 1462 1464 1466 1467 1469 1470 1473 1474 1476 1478 1479 1482 1484 1485 1488 1490 1491 1494 1496 1498
1425 1427 1428 1426 1431 1436 1434 1434 1434 1419 1400 1401 1410 1413 1413 1417 1419 1414 1406 1401 1401 1402 1402 1405 1407 1408 1411 1415 1416 1416 1415 1415 1416 1419 1420 1422 1423 1424 1425 1426 1425 1426 1428 1429 1430 1432 1433 1434 1435 1436 1437 1438 1440 1441 1442 1443 1443 1444 1445 1446 1447 1449 1451 1453 1455 1457 1459 1461 1463 1464 1466 1468 1470 1471 1473 1475 1477 1479 1481 1483 1485 1487 1489 1491 1493 1495
1406 1414 1420 1419 1421 1427 1431 1436 1433 1412 1390 1392 1407 1414 1412 1409 1404 1400 1399 1401 1402 1401 1403 1405 1405 1406 1409 1410 1411 1412 1413 1414 1417 1418 1418 1420 1421 1423 1424 1424 1425 1426 1427 1428 1430 1430 1431 1432 1433 1434 1435 1436 1438 1439 1439 1441 1441 1442 1443 1444 1445 1447 1449 1450 1452 1454 1456 1458 1460 1461 1463 1465 1467 1468 1470 1472 1474 1476 1478 1480 1482 1484 1486 1489 1491 1493
1398 1400 1404 1404 1405 1411 1418 1416 1405 1392 1386 1389 1393 1398 1401 1399 1397 1398 1400 1401 1402 1402 1404 1404 1404 1406 1407 1408 1410 1412 1412 1414 1415 1415 1416 1419 1420 1421 1422 1423 1424 1425 1426 1427 1428 1429 1430 1431 1432 1433 1434 1435 1437 1438 1439 1439 1440 1441 1441 1442 1444 1445 1446 1448 1450 1451 1453 1455 1456 1458 1460 1462 1464 1465 1467 1469 1471 1473 1475 1478 1480 1482 1484 1486 1488 1490
1383 1381 1385 1390 1392 1395 1395 1392 1388 1386 1388 1388 1385 1387 1392 1395 1396 1398 1399 1399 1401 1402 1402 1403 1405 1406 1406 1408 1410 1411 1411 1412 1413 1413 1415 1417 1417 1419 1420 1421 1422 1424 1425 1426 1427 1428 1430 1430 1431 1433 1434 1435 1436 1437 1438 1439 1439 1440 1440 1441 1442 1443 1444 1446 1447 1448 1450 1452 1453 1455 1457 1459 1461 1462 1464 1467 1468 1470 1472 1475 1477 1479 1481 1483 1485 1487
1377 1377 1380 1384 1390 1393 1388 1385 1388 1389 1387 1386 1387 1388 1391 1392 1395 1398 1399 1400 1400 1400 1401 1403 1403 1404 1406 1407 1408 1410 1411 1412 1412 1413 1414 1414 1416 1417 1418 1419 1421 1422 1424 1425 1426 1427 1428 1429 1431 1432 1432 1434 1435 1436 1437 1438 1438 1439 1439 1440 1440 1441 1442 1443 1444 1445 1447 1448 1450 1452 1454 1456 1458 1459 1461 1464 1466 1468 1470 1472 1474 1476 1478 1480 1482 1484
1377 1377 1379 1382 1390 1392 1383 1377 1382 1386 1385 1385 1386 1386 1388 1391 1394 1396 1398 1399 1399 1400 1401 1402 1402 1404 1405 1406 1407 1409 1410 1411 1412 1412 1413 1413 1414 1415 1416 1418 1419 1420 1422 1424 1424 1426 1427 1428 1429 1430 1431 1433 1433 1434 1435 1436 1437 1438 1438 1438 1439 1439 1440 1441 1441 1443 1444 1446 1447 1449 1451 1453 1455 1456 1458 1461 1463 1465 1467 1469 1472 1474 1475 1477 1479 1481
1372 1374 1378 1381 1383 1381 1373 1371 1377 1380 1380 1381 1383 1384 1387 1390 1392 1394 1396 1397 1397 1398 1399 1400 1402 1403 1404 1405 1407 1408 1409 1410 1411 1411 1412 1413 1413 1414 1416 1417 1418 1419 1421 1422 1423 1425 1426 1427 1428 1429 1430 1431 1432 1432 1433 1434 1435 1436 1437 1437 1438 1438 1438 1439 1440 1441 1442 1443 1445 1446 1448 1450 1452 1454 1456 1458 1459 1462 1464 1466 1468 1470 1472 1474 1476 1478
1367 1370 1370 1372 1375 1374 1369 1371 1378 1380 1380 1382 1382 1383 1385 1387 1389 1391 1392 1393 1395 1396 1397 1399 1400 1401 1403 1404 1406 1406 1407 1408 1409 1409 1411 1412 1412 1413 1415 1415 1417 1418 1419 1421 1422 1424 1424 1426 1427 1428 1428 1429 1429 1430 1431 1432 1434 1434 1435 1435 1436 1436 1437 1438 1438 1439 1440 1441 1442 1444 1445 1447 1449 1451 1453 1455 1457 1459 1461 1463 1466 1468 1470 1473 1475 1476
1363 1362 1362 1367 1371 1367 1361 1364 1371 1373 1375 1376 1376 1377 1380 1382 1385 1387 1388 1389 1392 1394 1395 1397 1398 1399 1401 1402 1403 1405 1406 1406 1407 1408 1409 1410 1411 1412 1413 1414 1416 1417 1418 1419 1421 1422 1423 1425 1425 1426 1427 1427 1428 1429 1430 1431 1432 1432 1433 1434 1434 1434 1435 1436 1436 1437 1438 1439 1440 1442 1443 1444 1446 1448 1450 1452 1455 1457 1459 1461 1464 1466 1468 1470 1472 1474
1348 1348 1352 1357 1357 1351 1350 1356 1362 1363 1363 1365 1367 1371 1375 1378 1380 1382 1384 1386 1388 1390 1393 1395 1396 1397 1399 1400 1401 1403 1403 1404 1406 1406 1407 1408 1409 1410 1411 1413 1414 1415 1416 1417 1418 1420 1421 1422 1423 1424 1425 1425 1426 1427 1429 1430 1430 1431 1431 1432 1432 1433 1433 1434 1435 1435 1436 1437 1438 1439 1441 1442 1444 1445 1447 1449 1452 1454 1456 1458 1461 1463 1465 1467 1469 1470